GFSFLT1_850_dewp_000.txt.gz
Dewpoint
-4 -4 -6 -7 -8 -11 -14 -16 -17 -16 -16 -16 -13 -9 -7 -6 -5 -5 -10 -10 -14 -13 -9 -13 -7 -6 -8 -16 -13 -6 -2 2
-4 -4 -5 -7 -8 -11 -13 -13 -15 -14 -10 -7 -6 -6 -5 -4 -5 -8 -6 -6 -5 -5 -6 -6 -6 -4 -3 -4 -6 -6 -6 -2
-4 -4 -4 -5 -6 -7 -7 -8 -10 -11 -8 -8 -8 -8 -7 -7 -6 -4 -4 -6 -5 -6 -6 -6 -5 -6 -6 -4 -4 -6 -7 -5
-4 -4 -4 -3 -4 -5 -6 -7 -8 -8 -10 -10 -9 -9 -9 -7 -6 -6 -4 -5 -4 -4 -4 -5 -5 -4 -5 -5 -5 -5 -7 -8
-5 -5 -4 -3 -3 -3 -5 -7 -7 -8 -13 -9 -11 -9 -9 -9 -8 -7 -6 -5 -6 -5 -4 -3 -3 -4 -5 -5 -7 -6 -5 -6
-5 -5 -5 -4 -3 -3 -7 -7 -7 -8 -10 -14 -7 -6 -8 -7 -6 -7 -5 -9 -12 -12 -6 -3 -2 -3 -3 -3 -3 -5 -5 -5
-6 -7 -7 -5 -4 -6 -7 -8 -6 -7 -10 -13 -13 -12 -7 -7 -6 -6 -7 -7 -7 -6 -5 -4 -4 -3 -3 -3 -3 -3 -3 -4
-4 -5 -6 -6 -5 -6 -7 -8 -6 -6 -10 -11 -12 -11 -6 -6 -7 -8 -9 -8 -8 -8 -8 -8 -8 -8 -7 -7 -6 -5 -6 -6
-4 -5 -5 -5 -6 -5 -5 -7 -8 -6 -9 -10 -10 -10 -8 -8 -11 -12 -13 -13 -14 -17 -19 -20 -15 -13 -12 -10 -11 -11 -10 -8
-3 -4 -6 -6 -4 -5 -5 -7 -7 -7 -9 -10 -10 -11 -12 -12 -13 -15 -13 -15 -13 -13 -19 -23 -22 -19 -15 -9 -8 -8 -7 -7
-2 -2 -3 -3 -3 -4 -5 -8 -8 -8 -9 -10 -11 -12 -12 -14 -15 -16 -16 -17 -16 -16 -18 -12 -9 -9 -8 -8 -8 -8 -7 -7
-2 -2 -2 -2 -3 -4 -6 -9 -8 -9 -10 -11 -12 -13 -14 -15 -15 -15 -13 -13 -15 -11 -10 -9 -9 -9 -8 -8 -7 -7 -7 -7
-2 -1 -1 -3 -4 -5 -7 -8 -8 -11 -12 -13 -13 -14 -14 -15 -12 -12 -11 -10 -10 -9 -9 -9 -9 -10 -10 -9 -8 -8 -8 -7
-1 -0 -2 -5 -5 -6 -7 -8 -11 -13 -12 -12 -12 -13 -14 -9 -9 -9 -10 -9 -9 -10 -11 -11 -11 -11 -10 -9 -9 -8 -7 -7
-0 1 -3 -6 -6 -7 -8 -10 -13 -9 -7 -10 -13 -10 -12 -10 -11 -13 -13 -11 -12 -12 -12 -11 -11 -11 -10 -9 -8 -8 -7 -7
1 -1 -4 -7 -7 -8 -11 -9 -8 -5 -7 -10 -9 -12 -13 -12 -12 -15 -14 -12 -13 -12 -12 -12 -11 -10 -9 -8 -8 -8 -8 -8
0 -2 -5 -8 -9 -9 -6 -5 -4 -5 -10 -9 -10 -13 -12 -12 -16 -14 -13 -13 -13 -13 -12 -11 -10 -9 -9 -9 -9 -9 -9 -9
2 -3 -7 -10 -9 -5 -4 -3 -5 -9 -9 -10 -12 -11 -13 -15 -15 -13 -14 -14 -13 -13 -12 -10 -9 -9 -9 -9 -10 -10 -10 -9
1 -4 -8 -8 -4 -4 -2 -5 -6 -8 -10 -13 -11 -12 -14 -15 -13 -14 -14 -13 -13 -12 -10 -9 -9 -9 -10 -10 -9 -10 -9 -9

GFSFLT1_850_dewp_003.txt.gz
Dewpoint
-5 -4 -3 -3 -4 -4 -5 -4 -5 -5 -5 -5 -4 -3 -3 -2 -3 -3 -2 -3 -6 -4 -3 -2 -2 -3 -3 -2 -4 -4 -4 -3
-5 -4 -3 -3 -4 -3 -5 -4 -5 -5 -6 -6 -5 -4 -3 -3 -4 -3 -3 -4 -3 -3 -4 -4 -3 -4 -3 -2 -2 -3 -4 -4
-4 -4 -3 -2 -3 -3 -4 -5 -5 -4 -6 -5 -6 -5 -5 -5 -4 -3 -2 -2 -3 -3 -4 -4 -5 -4 -3 -3 -3 -3 -4 -5
-5 -4 -3 -2 -2 -2 -3 -5 -5 -5 -5 -7 -6 -5 -5 -6 -6 -4 -2 -2 -2 -2 -3 -3 -3 -2 -3 -3 -3 -3 -4 -4
-5 -5 -4 -3 -2 -1 -2 -3 -4 -5 -5 -6 -7 -7 -7 -7 -7 -7 -7 -5 -3 -2 -3 -4 -4 -3 -3 -3 -4 -4 -3 -4
-4 -4 -4 -4 -3 -1 -1 -2 -3 -5 -6 -5 -7 -7 -6 -6 -6 -5 -5 -4 -3 -3 -3 -4 -3 -4 -4 -4 -4 -3 -3 -3
-4 -4 -4 -4 -3 -1 -0 -1 -2 -4 -5 -5 -5 -7 -6 -6 -6 -5 -5 -5 -6 -6 -5 -5 -4 -4 -5 -4 -4 -4 -4 -4
-3 -3 -3 -4 -4 -3 -1 -1 -2 -3 -4 -5 -5 -4 -4 -4 -4 -5 -6 -6 -7 -7 -7 -8 -8 -10 -8 -8 -8 -7 -7 -7
-2 -2 -2 -3 -3 -3 -3 -2 -2 -3 -4 -4 -4 -3 -3 -3 -5 -7 -9 -9 -7 -8 -8 -8 -9 -9 -9 -9 -9 -9 -10 -10
-1 -1 -2 -2 -2 -2 -2 -2 -2 -3 -4 -4 -3 -3 -4 -6 -7 -7 -9 -8 -9 -10 -9 -9 -9 -9 -9 -8 -8 -8 -8 -8
-1 -1 -1 -1 -1 -1 -1 -1 -2 -2 -4 -4 -3 -4 -6 -9 -9 -8 -10 -9 -8 -9 -10 -10 -10 -10 -9 -8 -8 -8 -8 -7
-1 -1 -1 -0 0 -1 -2 -2 -2 -2 -5 -4 -5 -5 -7 -8 -10 -9 -8 -9 -10 -10 -10 -10 -10 -9 -9 -9 -9 -8 -8 -8
-1 -1 -0 -0 -0 -2 -3 -3 -4 -5 -5 -5 -6 -7 -10 -8 -8 -7 -8 -8 -9 -9 -9 -9 -10 -10 -10 -9 -9 -9 -9 -9
-1 -1 0 0 -1 -3 -4 -4 -5 -6 -6 -6 -7 -8 -7 -6 -7 -8 -8 -9 -9 -9 -10 -10 -10 -10 -10 -10 -10 -9 -9 -9
-1 -0 0 1 -1 -3 -5 -5 -5 -7 -7 -8 -6 -6 -6 -7 -7 -7 -8 -8 -9 -10 -10 -11 -10 -10 -10 -10 -10 -9 -9 -8
-0 1 2 3 -2 -5 -5 -6 -7 -7 -6 -5 -4 -5 -6 -6 -7 -8 -8 -9 -10 -11 -11 -11 -11 -10 -11 -10 -9 -8 -8 -8
0 2 3 2 -3 -5 -6 -7 -6 -4 -3 -3 -5 -6 -6 -7 -8 -8 -9 -11 -12 -12 -11 -11 -11 -11 -10 -9 -9 -8 -8 -9
2 3 2 1 -3 -6 -7 -5 -2 -0 -3 -4 -5 -7 -8 -8 -9 -9 -11 -12 -12 -11 -11 -11 -10 -9 -9 -8 -9 -9 -9 -9
2 3 2 -1 -2 -4 -3 -0 -1 -3 -4 -6 -8 -8 -8 -8 -9 -12 -12 -12 -12 -11 -11 -10 -9 -8 -9 -10 -9 -9 -9 -9

GFSFLT1_850_dewp_006.txt.gz
Dewpoint
-5 -5 -5 -3 -3 -2 -3 -3 -3 -3 -3 -4 -3 -3 -4 -2 -2 -1 -2 -3 -6 -8 -3 -3 -4 -3 -3 -2 -4 -4 -3 -4
-7 -5 -4 -3 -3 -3 -3 -4 -3 -4 -4 -4 -4 -4 -3 -2 -3 -3 -2 -2 -3 -4 -4 -4 -4 -3 -3 -3 -3 -2 -3 -3
-5 -4 -3 -3 -2 -2 -2 -3 -4 -4 -4 -5 -5 -5 -4 -3 -3 -3 -3 -4 -3 -3 -3 -4 -3 -4 -4 -3 -2 -3 -3 -4
-5 -4 -4 -3 -2 -1 -2 -2 -3 -4 -4 -4 -5 -5 -5 -5 -5 -4 -4 -5 -2 -2 -2 -2 -3 -3 -2 -2 -3 -4 -3 -2
-4 -4 -4 -4 -3 -2 -1 -1 -2 -3 -4 -4 -5 -6 -5 -5 -7 -7 -6 -4 -2 -2 -2 -2 -3 -4 -4 -3 -3 -3 -3 -3
-4 -4 -3 -3 -3 -3 -2 -1 -2 -2 -3 -4 -5 -5 -6 -6 -5 -6 -6 -5 -5 -4 -3 -3 -3 -3 -4 -4 -4 -7 -6 -4
-3 -3 -3 -3 -3 -3 -3 -2 -1 -2 -2 -3 -4 -5 -5 -5 -5 -5 -5 -5 -4 -4 -4 -5 -5 -4 -4 -5 -9 -6 -7 -8
-2 -2 -2 -2 -2 -3 -3 -2 -2 -2 -1 -1 -2 -4 -4 -5 -5 -4 -5 -5 -4 -6 -6 -6 -6 -7 -11 -15 -15 -16 -16 -13
-2 -1 -1 -1 -1 -1 -1 -2 -3 -2 -2 -1 -2 -3 -4 -4 -3 -3 -4 -5 -5 -5 -6 -7 -11 -12 -13 -14 -15 -14 -15 -12
-1 -1 -1 -1 -1 0 0 0 -0 -1 -1 -1 -2 -3 -3 -3 -3 -3 -5 -7 -7 -8 -6 -9 -7 -12 -12 -12 -12 -12 -9 -9
-1 -1 -1 -1 -0 0 -0 -0 -1 -1 -2 -2 -2 -4 -3 -2 -4 -5 -6 -6 -4 -5 -5 -7 -12 -14 -14 -13 -11 -10 -9 -8
-1 -1 -1 -0 0 0 -0 -1 -2 -3 -2 -2 -2 -4 -3 -3 -5 -6 -3 -4 -4 -4 -6 -12 -14 -13 -12 -10 -9 -9 -9 -9
-1 -1 -1 0 1 1 1 -1 -3 -4 -3 -4 -4 -4 -4 -6 -7 -6 -4 -4 -4 -7 -10 -9 -10 -10 -10 -9 -9 -10 -9 -9
-0 -0 0 1 1 1 2 -1 -4 -4 -4 -5 -5 -5 -6 -7 -6 -5 -3 -5 -7 -8 -8 -9 -10 -10 -10 -10 -10 -10 -10 -9
-0 0 1 1 1 2 1 -3 -5 -5 -5 -6 -6 -7 -7 -5 -5 -5 -5 -7 -8 -8 -8 -9 -11 -12 -11 -10 -10 -10 -10 -9
2 2 1 1 2 2 -1 -3 -5 -5 -6 -7 -6 -5 -4 -3 -4 -5 -7 -7 -8 -9 -10 -12 -11 -11 -10 -10 -11 -11 -10 -10
3 2 1 2 2 2 -2 -5 -6 -7 -6 -4 -2 -1 -3 -3 -5 -7 -8 -8 -9 -11 -11 -11 -11 -10 -10 -10 -10 -9 -9 -8
3 2 0 2 1 0 -0 -4 -4 -4 -2 -1 -2 -2 -4 -6 -7 -8 -8 -9 -11 -12 -12 -11 -11 -10 -10 -9 -9 -9 -9 -10
2 1 1 2 1 1 0 1 0 -1 -1 -2 -3 -5 -7 -7 -8 -8 -11 -12 -11 -11 -11 -11 -10 -10 -10 -10 -11 -10 -9 -9

GFSFLT1_850_dewp_009.txt.gz
Dewpoint
-6 -5 -4 -4 -4 -3 -2 -3 -3 -3 -4 -2 -2 -2 -3 -3 -1 -0 -4 -5 -6 -8 -4 -3 -4 -4 -3 -3 -4 -5 -4 -4
-5 -5 -5 -4 -4 -3 -3 -3 -3 -4 -3 -4 -4 -4 -4 -5 -3 -2 -2 -2 -3 -5 -5 -3 -4 -3 -3 -3 -4 -3 -4 -5
-4 -4 -3 -3 -3 -3 -3 -4 -3 -3 -4 -4 -4 -4 -5 -5 -4 -3 -3 -3 -3 -3 -5 -4 -3 -4 -4 -4 -4 -3 -3 -3
-5 -5 -5 -4 -4 -3 -3 -3 -2 -2 -3 -4 -4 -4 -5 -5 -4 -3 -3 -3 -3 -3 -3 -3 -3 -3 -3 -3 -3 -3 -4 -3
-4 -4 -4 -3 -3 -3 -3 -2 -2 -2 -2 -3 -4 -4 -4 -5 -5 -5 -5 -5 -5 -4 -3 -2 -2 -2 -3 -3 -3 -4 -2 -3
-4 -3 -2 -3 -3 -3 -3 -3 -3 -3 -3 -2 -2 -3 -4 -4 -5 -5 -5 -5 -5 -2 -1 -1 -2 -3 -2 -1 -2 -4 -4 -7
-3 -2 -2 -2 -2 -2 -2 -2 -2 -2 -2 -3 -3 -2 -2 -3 -4 -5 -5 -5 -4 -2 -3 -3 -3 -3 -4 -3 -4 -5 -11 -14
-2 -2 -1 -1 -1 -1 -1 -1 -1 -0 -0 -1 -1 -2 -2 -1 -2 -4 -5 -5 -4 -4 -5 -4 -5 -5 -5 -5 -4 -8 -8 -14
-1 -1 -1 -1 -1 -1 -0 -0 -0 -0 -1 0 -0 -0 -0 -1 -1 -3 -4 -4 -4 -4 -4 -4 -5 -7 -4 -2 -3 -11 -17 -16
-1 -1 -1 -1 -1 -0 0 0 0 -0 -1 -2 -2 -2 -2 -1 -2 -2 -2 -3 -5 -5 -4 -6 -6 -3 -3 -8 -10 -15 -13 -12
-1 -1 -1 -1 -1 -1 -1 -0 0 -1 -1 -2 -3 -3 -2 -2 -2 -2 -3 -5 -5 -3 -2 -2 -2 -6 -8 -11 -15 -13 -11 -11
-0 -0 -0 0 0 1 1 0 -2 -0 -2 -3 -4 -3 -3 -3 -2 -4 -5 -3 -0 -3 -2 -5 -6 -8 -9 -11 -10 -9 -9 -9
0 0 0 1 1 1 0 -0 -1 -1 -4 -4 -4 -4 -4 -3 -4 -5 -6 -6 -5 -3 -5 -6 -8 -9 -8 -9 -9 -9 -10 -10
1 1 1 1 0 -1 -0 -1 1 -2 -4 -4 -4 -5 -5 -5 -6 -7 -6 -5 -4 -7 -7 -8 -8 -8 -8 -10 -12 -12 -11 -10
2 2 1 1 1 -1 1 1 1 -1 -5 -5 -5 -6 -7 -7 -7 -5 -5 -5 -6 -7 -8 -8 -8 -9 -12 -11 -11 -10 -10 -10
3 2 2 -1 -1 1 2 1 -0 -5 -5 -6 -7 -7 -6 -5 -4 -3 -4 -6 -7 -7 -8 -8 -10 -12 -11 -11 -10 -10 -10 -10
2 1 2 -0 1 2 2 1 -0 -2 -4 -5 -5 -3 -2 -2 -2 -3 -4 -7 -8 -8 -9 -12 -11 -11 -11 -10 -10 -10 -9 -9
3 3 2 0 2 2 1 0 -0 1 0 -0 -1 -1 -2 -4 -4 -6 -7 -8 -8 -11 -12 -12 -12 -11 -10 -10 -10 -11 -11 -11
3 0 -0 1 1 1 -1 -1 0 0 -0 -2 -4 -4 -4 -7 -7 -8 -8 -9 -11 -12 -13 -12 -11 -11 -11 -11 -11 -10 -10 -10

GFSFLT1_850_dewp_012.txt.gz
Dewpoint
-6 -5 -3 -3 -3 -3 -3 -3 -3 -3 -3 -3 -4 -4 -3 -2 -3 -3 -5 -5 -2 -4 -7 -8 -4 -4 -4 -5 -5 -5 -8 -7
-7 -6 -4 -4 -4 -3 -4 -3 -4 -4 -4 -3 -4 -4 -4 -4 -3 -4 -5 -4 -3 -4 -3 -4 -5 -4 -4 -4 -4 -4 -6 -6
-4 -4 -4 -4 -4 -4 -4 -3 -3 -3 -3 -4 -3 -3 -4 -4 -5 -5 -4 -3 -3 -3 -3 -3 -4 -4 -4 -4 -4 -4 -5 -4
-5 -5 -5 -4 -4 -3 -3 -3 -3 -3 -2 -2 -2 -2 -3 -4 -4 -4 -5 -4 -3 -3 -3 -3 -3 -4 -3 -4 -3 -3 -3 -4
-4 -4 -4 -3 -3 -3 -3 -3 -3 -3 -2 -2 -2 -2 -2 -2 -3 -4 -4 -5 -5 -3 -3 -3 -3 -3 -3 -2 -3 -3 -3 -3
-4 -3 -3 -2 -2 -2 -2 -2 -2 -2 -2 -2 -2 -2 -2 -2 -2 -2 -3 -4 -5 -5 -4 -2 -2 -2 -2 -3 -2 -2 -2 -5
-3 -3 -2 -2 -1 -1 -1 -1 -1 -1 -1 -0 -0 0 0 -0 -1 -1 -1 -3 -4 -5 -5 -2 -1 -1 -1 -1 -1 -2 -4 -3
-3 -2 -1 -1 -1 -1 -1 -1 -0 -0 -0 -0 -1 -1 -1 -1 -0 0 -0 -2 -4 -4 -3 -1 -1 -3 -2 -2 -3 -1 -1 -1
-1 -1 -1 -0 -0 -0 -0 -0 -0 -0 0 -0 -1 -2 -2 -2 -2 -3 -2 -0 -3 -3 -3 -4 -5 -5 -3 -2 -1 -1 -1 -3
-0 -1 -1 -0 -0 -0 -0 0 0 -0 -0 -1 -2 -2 -2 -3 -3 -3 -1 -2 -4 -5 -4 -5 -2 0 -0 -0 -3 -5 -9 -10
-0 -0 0 0 1 1 0 -0 -1 -2 -2 -1 -1 -2 -4 -4 -3 -2 -2 -3 -5 -5 -3 -1 -1 -2 -3 -4 -7 -9 -10 -12
0 0 1 1 1 0 -0 -1 -1 -2 -1 -0 -1 -3 -4 -4 -3 -3 -4 -5 -5 -2 -1 -4 -5 -8 -8 -8 -8 -8 -8 -9
2 2 1 0 -2 -2 -3 -4 -1 -1 -0 -1 -2 -4 -4 -3 -3 -4 -5 -5 -3 -5 -6 -9 -9 -8 -8 -8 -8 -8 -9 -11
2 1 0 0 -2 -2 -3 -1 1 1 1 -3 -4 -4 -4 -4 -5 -5 -6 -6 -5 -6 -9 -8 -8 -8 -8 -9 -9 -11 -12 -11
2 0 -0 0 -1 -1 -1 1 2 1 -1 -3 -5 -5 -5 -6 -6 -6 -5 -5 -5 -7 -8 -8 -8 -8 -9 -11 -12 -11 -11 -10
2 1 -0 1 -2 -2 0 2 1 0 -1 -2 -5 -6 -5 -4 -4 -3 -3 -2 -4 -8 -8 -8 -8 -10 -12 -11 -11 -11 -10 -10
1 0 1 1 -1 -1 1 1 -1 -2 -0 0 -1 -1 -1 -2 -1 -3 -6 -8 -8 -7 -8 -9 -11 -12 -13 -12 -10 -10 -10 -11
1 2 2 1 0 0 0 -1 -3 -3 -0 -1 -1 -1 -3 -6 -7 -7 -7 -7 -8 -9 -11 -11 -12 -12 -11 -11 -11 -11 -12 -12
1 2 2 1 0 0 -0 -3 -4 -4 -4 -3 -3 -4 -5 -7 -8 -8 -8 -9 -11 -11 -11 -12 -12 -12 -12 -11 -11 -12 -12 -11

GFSFLT1_850_dewp_015.txt.gz
Dewpoint
-4 -3 -2 -0 -2 -3 -3 -3 -3 -4 -4 -4 -4 -5 -4 -4 -5 -5 -4 -4 -4 -4 -3 -3 -4 -7 -7 -7 -6 -6 -6 -6
-7 -6 -5 -2 -3 -3 -3 -4 -3 -3 -3 -3 -4 -4 -4 -4 -4 -4 -4 -5 -5 -5 -4 -3 -3 -4 -4 -5 -5 -5 -5 -5
-6 -5 -4 -3 -4 -4 -4 -4 -3 -3 -3 -3 -3 -3 -3 -3 -3 -3 -4 -4 -4 -4 -5 -4 -3 -3 -3 -4 -4 -5 -4 -4
-4 -4 -4 -4 -4 -4 -3 -3 -3 -3 -3 -2 -2 -2 -2 -2 -2 -2 -2 -3 -4 -4 -4 -4 -3 -3 -3 -3 -4 -4 -4 -4
-4 -4 -4 -4 -4 -3 -3 -3 -3 -3 -2 -2 -2 -1 -1 -1 -1 -1 -1 -1 -3 -4 -4 -4 -3 -2 -2 -3 -3 -4 -3 -3
-4 -4 -4 -3 -3 -2 -2 -1 -2 -2 -2 -1 -0 -0 -0 -0 -0 -0 -0 -0 -0 -3 -4 -4 -3 -1 -2 -3 -3 -2 -2 -2
-4 -3 -2 -2 -2 -2 -2 -2 -1 -1 0 0 0 -0 -0 -0 -1 -2 -1 -1 -1 -0 -1 -4 -1 -1 -2 -2 -1 -2 -3 -3
-3 -2 -2 -1 -1 -1 -0 -0 -0 -0 -0 -0 -0 -0 -2 -1 -2 -2 -3 -3 -3 -3 -1 -3 -1 -1 -1 -2 -3 -2 -1 0
-2 -0 -0 -0 -0 -0 -0 -0 -0 -0 -1 -1 -1 -2 -3 -2 -2 -3 -4 -4 -3 -1 -1 -0 -1 -2 -3 -2 -1 -1 -0 -1
-0 -0 -0 -0 0 0 0 0 -1 -2 -3 -3 -2 -2 -3 -2 -2 -4 -4 -4 -2 -2 -3 -3 -4 -3 -1 -1 -1 -2 -2 -5
0 0 1 1 1 -0 -2 -2 -2 -4 -2 -3 -2 -1 -5 -3 -3 -4 -4 -4 -2 -3 -4 -4 -3 -1 -1 -3 -6 -7 -8 -8
1 1 1 -0 -1 -1 -2 -1 -3 -3 -2 -0 0 -4 -4 -4 -4 -4 -4 -4 -4 -5 -4 -2 -2 -8 -8 -8 -8 -8 -8 -8
2 2 1 -0 -2 -0 -2 -3 -3 -2 0 1 -0 -2 -4 -4 -3 -4 -4 -5 -3 -2 -3 -6 -9 -8 -8 -8 -7 -8 -9 -10
2 2 2 1 -1 0 -2 -3 -4 -0 1 -1 -1 -2 -4 -4 -5 -5 -5 -5 -4 -4 -7 -8 -7 -7 -8 -8 -8 -9 -11 -13
3 3 1 0 1 0 -2 -3 -1 -0 -1 -1 -3 -2 -4 -5 -6 -5 -5 -4 -4 -4 -3 -5 -7 -8 -8 -9 -11 -13 -13 -13
3 3 1 0 2 -1 -1 -1 -0 -1 -2 -4 -1 -1 -3 -4 -3 -3 -3 -3 -4 -7 -8 -7 -8 -8 -10 -12 -13 -13 -12 -12
2 0 -0 -1 -1 0 0 -0 -0 -1 -4 -4 -1 -1 -2 -2 -3 -4 -5 -5 -5 -6 -7 -8 -10 -12 -12 -13 -12 -12 -12 -12
-1 -5 -2 -2 -0 1 1 0 -1 -3 -5 -5 -4 -4 -4 -4 -4 -4 -5 -5 -7 -9 -10 -11 -12 -13 -12 -13 -13 -12 -12 -13
-4 -6 -3 0 2 1 0 -1 -1 -2 -2 -2 -2 -3 -3 -5 -8 -8 -9 -10 -10 -11 -12 -13 -12 -13 -13 -13 -14 -14 -13 -13

GFSFLT1_850_dewp_021.txt.gz
Dewpoint
5 4 4 2 2 3 4 1 -2 -3 -3 -4 -4 -4 -3 -2 -2 -2 -2 -2 -2 -2 -2 -2 -3 -3 -4 -4 -4 -4 -4 -5
1 -1 -3 -4 -2 1 1 -1 -3 -3 -3 -3 -3 -3 -3 -2 -2 -2 -2 -2 -1 -1 -1 -1 -2 -2 -3 -3 -4 -3 -3 -4
-6 -6 -5 -5 -3 -1 -1 -2 -2 -2 -2 -2 -2 -3 -3 -2 -2 -1 -0 -0 -0 -0 -0 -0 -0 -1 -2 -2 -2 -2 -2 -3
-4 -4 -4 -3 -3 -2 -2 -1 -1 -2 -2 -2 -2 -2 -1 -1 -1 0 0 -0 -0 -1 -1 -1 -1 -1 -1 -0 -1 -2 -1 -1
-4 -3 -3 -3 -3 -3 -2 -2 -2 -2 -1 -0 0 0 0 -0 -0 -1 -1 -2 -3 -3 -3 -2 -2 -2 -2 -1 0 -1 -1 1
-4 -4 -3 -2 -2 -2 -1 -1 -1 -0 0 0 -0 -0 -1 -3 -3 -4 -5 -7 -8 -8 -7 -4 -4 -4 -4 -3 -2 -1 -0 1
-2 -2 -1 -0 0 0 0 -0 -0 -1 -1 -1 0 1 -1 -4 -6 -7 -9 -10 -11 -9 -7 -6 -6 -5 -5 -3 -1 0 1 1
0 0 0 0 0 -0 -0 -1 -1 -0 -0 0 -1 -4 -6 -6 -6 -6 -7 -7 -8 -6 -4 -4 -4 -4 -2 -1 -0 -1 -1 -1
1 1 1 1 1 1 0 -0 -0 -0 -2 -4 -7 -7 -5 -6 -7 -7 -6 -6 -6 -4 -3 -4 -3 -2 -1 -1 -1 -1 -1 -1
1 0 0 1 1 1 1 -0 -3 -4 -6 -8 -8 -6 -5 -4 -6 -7 -7 -5 -4 -3 -2 -2 -1 -1 -1 -1 -1 -1 -2 -3
-0 -0 1 1 2 3 -0 -0 0 -3 -4 -3 -2 -1 -2 -4 -6 -6 -4 -4 -3 -2 -2 -1 -2 -2 -2 -3 -6 -7 -6 -5
2 2 2 3 3 1 -4 -4 -2 0 0 -0 -0 -0 -2 -4 -6 -4 -4 -3 -2 -1 -2 -3 -2 -3 -4 -4 -5 -5 -6 -7
2 2 1 1 1 -3 -7 -6 -4 -1 0 1 0 -2 -4 -5 -6 -3 -4 -2 -2 -3 -3 -3 -3 -4 -4 -5 -6 -7 -8 -9
3 2 -0 -1 -1 -3 -4 -5 -4 -1 1 1 -1 -4 -4 -5 -3 -3 -4 -3 -3 -3 -3 -5 -7 -6 -6 -7 -8 -9 -10 -12
2 1 -0 -2 -2 -2 -2 -2 -2 0 0 -1 -2 -4 -4 -3 -3 -3 -3 -3 -4 -5 -5 -6 -7 -6 -6 -7 -9 -11 -14 -15
2 -0 -2 -2 -1 -4 -9 -10 -8 -3 -1 -3 -2 -2 -2 -3 -4 -3 -4 -5 -6 -6 -4 -4 -5 -8 -10 -11 -13 -14 -14 -16
-0 -1 -3 -2 -7 -10 -8 -6 -4 -2 -3 -2 -2 -2 -2 -2 -4 -7 -6 -6 -7 -8 -9 -10 -10 -11 -13 -13 -14 -15 -16 -17
-3 -2 -3 -9 -10 -9 -7 -6 -5 -4 -4 -4 -3 -5 -6 -6 -6 -6 -7 -9 -10 -10 -11 -12 -13 -13 -13 -14 -15 -16 -15 -12
-4 -2 -8 -11 -10 -8 -5 -4 -3 -4 -5 -6 -6 -6 -7 -8 -10 -12 -13 -14 -13 -12 -12 -12 -13 -14 -14 -15 -16 -16 -11 -11

GFSFLT1_850_dewp_024.txt.gz
Dewpoint
5 5 4 3 5 4 5 8 8 2 -1 -3 -3 -3 -3 -3 -1 -2 -2 -2 -1 -1 -1 -0 3 4 4 4 5 4 4 2
1 3 2 -1 -2 1 6 7 6 2 2 2 3 2 1 0 0 -0 -1 -0 0 0 -0 -0 0 4 4 4 4 5 5 4
-1 1 -3 -2 -1 1 2 2 1 1 0 -1 -2 -2 -1 -0 1 3 3 0 -0 -1 -1 -1 2 3 4 4 5 5 4 4
-1 -0 -1 -2 -2 -1 -0 -0 -1 -1 -2 1 2 2 2 1 1 1 -1 -2 -5 -6 -7 -7 -6 -3 2 3 3 4 4 4
-1 0 -1 -2 -2 -2 -2 -1 -0 -0 -0 0 -1 1 1 2 2 2 0 -3 -5 -5 -4 -3 -4 -0 1 2 2 3 3 3
0 1 2 2 -0 0 0 2 0 -0 -1 1 3 3 2 2 2 1 -0 -1 -2 -2 -1 -11 -10 -4 -1 -0 2 3 3 3
1 2 2 2 3 2 2 2 2 -0 -1 -1 -1 -3 -2 -1 -1 -2 -3 -4 -4 -3 -2 -7 -6 -4 -3 -3 -0 1 1 2
2 2 2 3 3 3 2 2 2 1 0 -1 -1 -3 -2 -2 -2 -2 -2 -3 -3 -2 -3 -1 0 -0 -1 -1 -1 -1 -0 -0
2 2 2 3 3 3 3 3 2 1 -0 -1 -7 -11 -4 -2 -1 -1 -2 -2 -2 -1 0 0 0 -0 0 -0 -1 -1 -1 -1
1 2 2 3 3 3 3 2 1 1 -0 -1 -1 0 0 1 -0 -2 -3 -3 -2 -0 -0 0 -0 -1 -1 -1 -2 -2 -5 -5
2 2 2 2 2 2 2 1 1 1 1 2 1 2 1 0 -1 -3 -2 -2 -0 -0 -1 -1 -1 -2 -2 -3 -3 -2 -3 -3
2 2 2 2 2 1 -0 1 1 2 2 1 1 1 1 -1 -2 -2 -1 -1 -1 -1 -2 -2 -2 -3 -4 -4 -4 -4 -4 -4
1 2 2 0 -0 -1 0 1 0 -0 -1 -1 -0 -0 -0 -2 -2 -2 -2 -2 -2 -3 -2 -3 -4 -4 -4 -4 -4 -5 -6 -7
1 1 1 -0 -2 -1 -1 -3 -4 -4 -3 -2 -1 -1 -2 -1 -1 -3 -4 -4 -4 -4 -3 -3 -4 -5 -6 -6 -7 -7 -7 -8
1 1 0 -2 -1 -3 -6 -5 -4 -3 -2 -2 -2 -1 -2 -2 -2 -4 -3 -3 -3 -3 -4 -4 -5 -4 -6 -7 -8 -8 -8 -9
2 0 -2 -2 -4 -6 -5 -4 -3 -2 -2 -3 -2 -1 -2 -2 -2 -3 -3 -3 -4 -4 -6 -7 -7 -8 -10 -11 -12 -10 -10 -10
1 -2 -2 -3 -5 -5 -4 -3 -2 -2 -3 -3 -2 -2 -3 -3 -3 -4 -6 -7 -8 -8 -9 -8 -9 -9 -9 -12 -14 -12 -11 -10
-2 -2 -2 -4 -4 -5 -4 -3 -3 -3 -3 -4 -4 -5 -5 -6 -7 -8 -8 -8 -9 -9 -9 -9 -9 -9 -9 -13 -15 -15 -10 -9
-3 -2 -3 -4 -5 -6 -4 -4 -3 -3 -4 -4 -5 -5 -6 -7 -7 -7 -8 -9 -9 -9 -9 -9 -9 -10 -10 -13 -14 -13 -9 -9

GFSFLT1_850_dewp_030.txt.gz
Dewpoint
2 4 4 4 5 6 7 7 9 10 9 7 6 4 4 4 3 2 2 3 3 3 1 1 1 3 3 3 4 4 4 4
4 4 4 4 4 6 7 8 8 9 7 6 5 3 3 3 2 2 3 3 3 2 2 2 2 2 2 2 2 1 2 3
3 4 3 3 4 4 4 5 5 3 3 3 2 2 2 2 2 3 3 3 3 3 3 2 2 1 0 -1 -0 2 2 3
3 4 5 4 4 3 3 3 3 2 1 3 3 2 2 2 3 2 3 4 3 2 1 -1 -1 -1 0 1 -3 -2 1 2
3 4 5 5 5 4 4 3 3 3 1 2 3 3 4 4 3 2 2 2 -1 -1 -2 -2 -2 -2 -1 -1 1 1 1 1
2 3 4 5 5 5 4 3 3 3 3 3 3 3 3 2 1 0 -0 -1 -1 -1 -1 -2 -2 -3 -2 1 2 2 2 3
2 2 2 4 4 4 4 3 3 3 3 3 2 2 2 1 0 0 1 1 0 -1 -3 -4 -2 -0 0 1 1 -1 -1 -1
1 2 2 3 3 4 4 4 3 2 1 1 2 2 2 1 1 2 2 1 -1 -2 -2 -1 -0 0 -1 -1 -2 -2 -1 -1
1 1 2 3 2 2 2 3 3 1 1 1 2 2 2 2 1 1 1 -0 -1 -1 -1 -0 -1 -2 -2 -1 -1 -1 -3 -2
1 1 1 1 1 1 2 2 1 0 1 1 1 0 1 0 -0 -0 -1 -2 -2 -1 -2 -3 -2 -2 -1 -3 -3 -5 -4 -2
1 1 1 1 1 1 1 0 0 1 -0 -2 -3 -4 -3 -2 -2 -2 -2 -2 -3 -3 -3 -3 -4 -5 -4 -4 -5 -3 -4 -4
0 -0 0 1 1 1 -0 -1 -0 -3 -5 -5 -6 -5 -3 -2 -2 -2 -2 -3 -4 -3 -2 -3 -3 -3 -3 -3 -3 -5 -4 -5
-0 0 1 1 1 -0 -1 -1 -5 -6 -6 -5 -4 -3 -3 -2 -2 -2 -3 -2 -2 -2 -3 -3 -3 -4 -5 -5 -6 -6 -7 -6
-0 0 1 1 0 -1 -2 -4 -6 -6 -5 -4 -4 -4 -3 -3 -4 -1 -4 -4 -3 -4 -4 -5 -5 -6 -7 -8 -9 -9 -8 -8
1 1 1 1 -1 -2 -3 -5 -6 -6 -5 -4 -4 -4 -3 -5 -3 -4 -4 -5 -4 -5 -6 -7 -7 -9 -9 -9 -10 -9 -9 -10
2 2 0 -1 -1 -2 -4 -5 -6 -6 -5 -4 -4 -4 -3 -5 -5 -4 -4 -5 -5 -6 -7 -9 -10 -10 -10 -10 -10 -10 -9 -10
2 -0 -1 -1 -1 -3 -4 -5 -7 -7 -7 -6 -5 -5 -5 -4 -4 -5 -5 -6 -6 -8 -10 -10 -10 -10 -9 -10 -10 -9 -10 -10
1 -0 -1 -1 -1 -4 -5 -5 -6 -7 -8 -7 -7 -4 -5 -6 -6 -5 -6 -7 -9 -10 -10 -10 -9 -9 -9 -9 -9 -8 -9 -10
-0 -1 -1 -1 -4 -5 -5 -5 -6 -6 -7 -8 -9 -6 -6 -6 -5 -7 -7 -9 -10 -10 -10 -10 -10 -10 -10 -9 -9 -10 -11 -12

GFSFLT1_850_dewp_033.txt.gz
Dewpoint
4 5 5 6 6 7 8 9 9 10 8 8 7 5 5 5 4 4 4 3 3 2 2 2 2 2 2 3 2 2 3 2
4 4 4 4 5 5 6 7 8 8 7 6 5 5 4 3 2 2 3 3 3 3 3 3 3 2 1 -0 -1 -2 -3 -2
3 4 5 5 5 5 4 5 6 5 3 3 3 3 2 2 2 4 4 4 4 4 3 2 1 -1 -2 -1 -2 -1 -4 -7
4 3 3 2 2 1 1 0 0 0 1 2 2 2 2 3 3 3 2 2 2 1 -0 -1 -1 -2 -2 -2 -2 -5 -5 0
4 4 4 3 3 3 3 3 2 2 2 2 2 2 2 3 2 1 1 1 0 -1 -1 -1 -1 -2 -5 -6 -3 0 2 2
3 3 3 3 3 3 3 3 3 3 3 3 2 2 2 2 1 1 0 0 0 -0 0 -0 -4 -6 -2 -0 1 1 -1 -2
2 3 3 3 3 4 4 3 3 2 1 2 2 2 2 1 1 1 1 1 2 1 -1 -3 -3 -2 -1 0 -2 -2 -3 -2
2 2 3 3 3 4 3 3 3 3 1 1 1 2 2 2 2 1 1 1 0 -0 -4 -5 -4 -2 -4 -3 -3 -3 -3 -4
1 1 2 2 2 1 1 1 1 1 1 1 1 1 -0 -1 -1 -0 -1 -1 -1 -3 -2 -3 -4 -4 -3 -3 -3 -4 -5 -6
1 1 1 1 1 1 1 1 1 0 1 1 0 -3 -4 -5 -4 -3 -2 -2 -2 -2 -3 -4 -4 -5 -5 -4 -5 -6 -6 -6
1 1 1 1 1 1 1 0 -0 -0 -0 -1 -3 -5 -7 -6 -4 -3 -2 -2 -2 -3 -3 -4 -3 -3 -4 -4 -4 -5 -5 -5
-0 -0 0 1 1 1 -0 -1 -1 -1 -3 -5 -6 -8 -4 -4 -3 -3 -3 -6 -4 -3 -3 -3 -3 -3 -4 -5 -4 -5 -5 -5
0 0 1 1 1 -0 -1 -1 -1 -4 -5 -6 -6 -4 -4 -4 -4 -3 -5 -4 -5 -4 -3 -4 -5 -5 -6 -6 -8 -8 -8 -8
1 1 1 1 -0 -1 -1 -2 -4 -4 -5 -6 -5 -4 -4 -4 -4 -4 -8 -6 -5 -5 -5 -5 -6 -7 -9 -9 -10 -9 -9 -9
2 2 2 1 -0 -1 -2 -4 -5 -5 -6 -7 -8 -5 -4 -5 -4 -6 -9 -6 -5 -5 -6 -6 -9 -10 -10 -10 -10 -10 -10 -10
1 1 0 -1 -2 -1 -2 -4 -4 -5 -6 -7 -7 -7 -6 -5 -4 -6 -7 -7 -5 -6 -6 -8 -10 -10 -10 -9 -9 -9 -10 -10
0 -1 -3 -3 -2 -2 -3 -4 -5 -5 -5 -6 -7 -8 -5 -5 -4 -9 -8 -6 -6 -7 -8 -10 -10 -10 -10 -9 -10 -11 -10 -10
-1 -3 -4 -5 -6 -6 -4 -5 -5 -4 -4 -4 -5 -5 -6 -4 -5 -5 -7 -6 -7 -9 -10 -10 -10 -10 -10 -10 -11 -12 -11 -11
-6 -7 -7 -6 -5 -6 -8 -8 -9 -8 -7 -7 -5 -4 -4 -3 -3 -5 -6 -7 -8 -10 -10 -10 -10 -10 -9 -11 -11 -11 -11 -12

GFSFLT1_850_dewp_036.txt.gz
Dewpoint
6 6 5 6 7 8 9 8 8 8 8 7 8 7 6 5 5 5 5 5 4 3 3 3 3 3 3 3 0 -1 -3 -4
7 7 7 7 8 9 9 10 10 9 9 9 7 4 2 2 3 4 3 3 4 4 4 3 3 3 1 -0 -1 -3 -4 -5
5 5 6 6 6 6 5 3 3 3 3 3 4 4 3 4 4 4 3 3 3 3 3 2 1 -0 -1 -1 -2 -3 -6 -9
2 2 3 3 2 2 1 2 2 2 2 2 2 2 2 2 2 2 2 1 0 0 -0 -1 -1 -1 -1 -2 -5 -10 -7 -1
2 2 1 1 1 1 0 1 2 2 2 1 -1 -2 -0 1 1 1 1 1 0 0 0 0 0 -2 -9 -7 -3 0 -0 -1
2 2 2 2 2 2 2 2 2 3 2 2 1 1 1 2 1 1 1 1 1 1 0 -1 -5 -8 -7 -4 -3 -2 -3 -3
2 3 3 3 3 3 3 3 3 2 2 2 0 0 -0 1 2 2 2 1 0 -0 -1 -3 -3 -4 -6 -6 -4 -2 -3 -3
2 3 3 3 3 3 3 2 2 1 1 0 0 1 1 1 -0 -1 -1 -2 -2 -2 -2 -2 -2 -4 -5 -5 -5 -4 -4 -6
2 2 2 3 3 2 2 1 1 1 1 1 1 0 -1 -3 -4 -6 -4 -2 -2 -2 -2 -2 -4 -4 -4 -5 -5 -5 -6 -6
1 2 2 2 2 1 1 1 1 1 0 -0 -0 -2 -5 -6 -9 -7 -3 -3 -2 -6 -6 -4 -3 -3 -3 -4 -4 -5 -5 -5
2 1 1 1 1 1 0 -0 -0 -0 -0 -1 -4 -5 -7 -9 -9 -5 -4 -4 -4 -9 -4 -3 -4 -4 -4 -4 -4 -4 -5 -5
1 1 1 1 0 0 -0 -1 -1 -1 -3 -4 -4 -6 -9 -11 -10 -7 -5 -4 -4 -11 -7 -5 -4 -5 -6 -6 -7 -7 -8 -8
1 1 1 1 0 -0 -1 -1 -2 -3 -3 -5 -6 -8 -9 -9 -9 -9 -5 -4 -5 -11 -8 -7 -6 -6 -7 -8 -9 -10 -9 -9
1 1 -0 -1 -0 -1 -1 -2 -3 -4 -4 -5 -6 -7 -7 -7 -5 -5 -4 -5 -10 -8 -8 -6 -6 -8 -9 -10 -10 -9 -9 -10
1 0 -1 -3 -4 -4 -2 -2 -3 -4 -5 -5 -5 -6 -6 -6 -5 -5 -4 -5 -8 -6 -6 -6 -6 -7 -10 -10 -10 -10 -10 -10
-1 -2 -3 -4 -6 -8 -7 -6 -4 -3 -5 -4 -4 -4 -5 -5 -4 -4 -3 -3 -6 -5 -5 -7 -8 -10 -10 -10 -10 -10 -11 -12
-4 -5 -6 -7 -6 -4 -3 -4 -5 -6 -7 -7 -5 -6 -5 -5 -4 -4 -4 -4 -5 -6 -7 -8 -10 -11 -10 -10 -10 -10 -12 -12
-6 -6 -6 -6 -6 -7 -9 -11 -11 -11 -11 -9 -9 -9 -8 -5 -5 -4 -4 -3 -5 -7 -6 -10 -10 -10 -10 -9 -11 -12 -12 -12
-6 -6 -10 -12 -12 -12 -12 -12 -13 -11 -10 -10 -9 -9 -8 -9 -8 -8 -4 -5 -5 -6 -10 -10 -10 -9 -9 -11 -12 -11 -11 -12

GFSFLT1_850_dewp_039.txt.gz
Dewpoint
5 5 4 5 6 8 9 9 9 9 9 9 8 6 6 5 5 5 6 6 6 5 4 4 4 4 3 3 2 0 -1 -2
9 8 7 7 9 9 8 9 9 8 8 8 8 7 5 3 3 3 3 4 4 4 4 3 3 2 0 -1 -1 -1 -2 -2
6 7 8 8 8 7 4 3 3 4 4 4 4 3 3 3 3 3 4 3 2 1 0 -0 -0 -0 -0 -0 -1 -4 -7 -9
6 6 5 4 3 2 1 1 1 1 2 2 1 -0 -3 -3 -2 -3 -1 0 1 1 1 1 1 0 -1 -7 -12 -12 -11 -8
2 1 1 1 1 1 1 1 1 0 -3 -3 -3 -3 -3 -2 -1 -1 1 1 1 2 1 1 -1 -2 -5 -8 -8 -10 -7 -4
1 2 2 3 2 2 1 1 0 -0 -1 -0 0 -0 -0 -0 0 1 2 2 1 -0 -1 -2 -3 -3 -3 -3 -7 -6 -2 -2
3 3 2 2 3 2 3 3 2 1 1 1 0 0 0 1 1 1 -0 -2 -3 -3 -3 -3 -2 -3 -3 -5 -6 -6 -5 -4
2 2 2 2 3 4 3 2 2 1 1 1 1 0 0 -1 -3 -4 -6 -7 -5 -3 -3 -4 -9 -8 -6 -5 -5 -5 -5 -6
3 2 2 3 4 3 2 2 1 1 1 0 -0 -0 -2 -4 -6 -9 -11 -6 -4 -4 -5 -8 -9 -5 -5 -4 -4 -4 -4 -5
3 3 4 3 2 2 1 1 1 0 -0 -0 -1 -4 -4 -5 -10 -12 -11 -9 -6 -4 -4 -10 -5 -3 -3 -3 -4 -5 -5 -5
2 3 2 2 1 1 1 0 -0 -1 -1 -3 -4 -6 -7 -7 -9 -9 -8 -8 -6 -5 -4 -9 -10 -5 -4 -5 -6 -7 -8 -8
2 1 2 2 1 1 -0 -1 -1 -2 -3 -3 -5 -5 -5 -6 -7 -7 -6 -5 -4 -4 -5 -11 -10 -7 -6 -7 -7 -9 -10 -10
2 1 1 1 1 -0 -1 -2 -3 -3 -4 -4 -5 -5 -5 -6 -6 -6 -5 -4 -4 -5 -8 -6 -6 -6 -7 -8 -9 -10 -10 -9
1 0 -0 -1 -3 -4 -4 -2 -3 -3 -4 -4 -5 -4 -6 -5 -5 -5 -4 -3 -4 -4 -4 -7 -5 -6 -7 -8 -10 -10 -10 -10
-1 -2 -4 -5 -7 -7 -5 -4 -3 -3 -3 -4 -5 -6 -4 -6 -5 -5 -7 -4 -5 -4 -4 -4 -5 -6 -9 -10 -11 -11 -10 -10
-4 -5 -6 -5 -5 -5 -5 -5 -7 -8 -11 -12 -12 -12 -10 -7 -9 -8 -6 -6 -4 -4 -4 -5 -7 -8 -9 -11 -10 -9 -10 -12
-7 -6 -5 -6 -8 -9 -10 -11 -12 -13 -13 -14 -12 -10 -10 -10 -9 -8 -8 -7 -4 -3 -4 -7 -6 -8 -10 -10 -9 -10 -12 -12
-5 -5 -8 -12 -12 -12 -13 -13 -12 -12 -12 -10 -10 -9 -9 -9 -9 -10 -7 -5 -5 -5 -6 -6 -7 -9 -9 -9 -10 -11 -11 -11
-6 -10 -12 -12 -12 -12 -11 -11 -11 -11 -10 -9 -9 -9 -8 -9 -11 -7 -4 -4 -5 -6 -9 -9 -9 -9 -9 -10 -12 -13 -14 -15

GFSFLT1_850_dewp_042.txt.gz
Dewpoint
6 6 6 5 5 6 9 10 9 7 9 9 9 8 6 5 5 5 5 6 6 5 4 4 3 2 1 0 -0 -0 -1 -2
6 7 6 7 8 9 10 10 9 9 9 8 5 6 5 2 0 -0 1 3 3 3 2 1 0 0 0 0 0 -2 -6 -11
9 10 10 10 10 10 8 4 5 5 5 5 3 2 -1 -3 -3 -3 -2 -2 -2 -1 1 1 1 1 1 -2 -5 -9 -12 -15
7 7 6 5 2 -0 -0 -0 1 1 -0 -1 -3 -3 -3 -1 -1 -1 -1 -1 0 1 2 2 1 -2 -4 -6 -7 -9 -10 -13
5 2 0 -0 -0 0 0 -1 -1 -3 -3 -2 -2 -1 -0 0 0 0 1 1 1 1 -1 -3 -4 -5 -5 -7 -11 -11 -11 -10
2 1 2 1 1 2 2 2 1 0 0 1 0 0 0 1 1 1 1 -1 -2 -4 -5 -5 -5 -5 -9 -12 -9 -7 -6 -6
2 2 2 2 3 3 3 3 3 2 2 1 1 1 0 0 -0 -2 -5 -7 -8 -8 -6 -6 -6 -8 -14 -9 -7 -6 -5 -5
3 3 3 3 4 4 3 3 3 2 1 1 0 -0 -1 -3 -5 -7 -12 -11 -11 -9 -8 -7 -6 -6 -14 -10 -8 -7 -6 -4
3 4 4 4 4 4 3 2 2 1 1 -0 -1 -3 -5 -7 -8 -8 -10 -9 -8 -8 -7 -6 -6 -6 -11 -6 -5 -5 -5 -5
4 4 4 4 4 2 2 1 0 -0 -1 -2 -3 -5 -5 -6 -6 -7 -7 -6 -6 -5 -5 -4 -6 -7 -5 -3 -5 -6 -6 -7
2 3 3 2 1 1 1 -0 -1 -2 -3 -3 -3 -5 -5 -5 -5 -6 -5 -5 -5 -4 -4 -6 -6 -8 -5 -5 -6 -7 -8 -9
2 2 2 1 0 1 0 -0 -2 -2 -2 -4 -4 -4 -5 -5 -6 -6 -5 -5 -4 -3 -4 -5 -5 -6 -6 -6 -6 -8 -9 -10
1 1 1 1 -0 -2 -4 -4 -3 -3 -4 -4 -4 -3 -4 -5 -5 -5 -5 -5 -6 -3 -4 -4 -4 -4 -6 -5 -8 -9 -10 -10
1 0 -1 -3 -5 -6 -6 -7 -6 -5 -4 -4 -6 -10 -14 -12 -7 -7 -9 -8 -6 -5 -4 -4 -3 -4 -5 -6 -8 -10 -10 -10
-1 -3 -5 -6 -6 -7 -6 -5 -6 -7 -10 -12 -14 -14 -13 -11 -11 -11 -11 -10 -8 -6 -4 -4 -3 -5 -5 -8 -8 -10 -10 -10
-5 -6 -6 -6 -6 -7 -8 -10 -12 -13 -12 -14 -13 -11 -10 -10 -10 -10 -11 -9 -6 -5 -3 -4 -4 -5 -7 -7 -8 -9 -9 -10
-6 -6 -5 -7 -10 -12 -12 -12 -12 -12 -14 -13 -11 -10 -9 -9 -8 -9 -11 -8 -4 -4 -6 -5 -6 -6 -7 -8 -9 -9 -10 -13
-5 -5 -8 -12 -12 -12 -12 -11 -13 -15 -14 -11 -10 -9 -8 -8 -7 -10 -11 -6 -4 -5 -7 -7 -8 -9 -8 -8 -9 -11 -13 -13
-5 -8 -12 -12 -12 -11 -12 -14 -15 -16 -15 -13 -9 -8 -7 -6 -7 -8 -9 -6 -8 -8 -8 -9 -8 -8 -7 -9 -11 -12 -13 -15

GFSFLT1_850_dewp_045.txt.gz
Dewpoint
6 6 6 5 5 5 7 9 11 9 8 7 6 9 6 5 2 1 1 1 2 2 2 2 1 1 1 1 1 -0 -3 -7
7 6 6 6 7 8 9 9 8 8 9 8 6 5 1 -3 -3 -3 -2 -2 -2 -2 -2 -0 1 1 1 -0 -4 -8 -10 -11
9 9 9 10 9 9 9 7 9 8 5 4 4 1 -3 -2 -1 -0 -0 -0 -1 -1 -0 1 1 -1 -4 -7 -9 -10 -12 -14
7 7 6 2 -0 -1 -0 -0 -1 0 2 1 -1 -2 -1 0 0 0 0 -0 0 0 -1 -3 -4 -7 -8 -10 -11 -13 -13 -12
6 1 -0 -0 -0 -2 -2 -2 -1 -1 -1 -1 -0 -0 -0 0 1 1 0 1 -1 -3 -6 -8 -9 -10 -11 -11 -12 -14 -12 -4
1 0 1 1 1 1 1 1 0 0 0 1 1 1 1 1 1 0 -2 -4 -7 -11 -12 -12 -12 -12 -9 -8 -13 -13 -10 -7
1 2 2 2 2 2 2 3 2 2 2 1 1 1 -0 -2 -3 -5 -7 -10 -12 -10 -8 -8 -8 -7 -6 -7 -10 -9 -7 -6
2 3 3 3 3 3 3 3 3 2 1 1 0 -1 -3 -4 -6 -7 -8 -10 -9 -7 -7 -6 -5 -5 -5 -7 -8 -6 -5 -5
3 3 3 3 4 4 3 3 2 1 1 -0 -2 -3 -4 -5 -6 -6 -6 -6 -6 -6 -6 -5 -4 -5 -6 -7 -8 -6 -6 -6
4 4 4 4 4 4 2 2 1 -0 -1 -3 -3 -4 -5 -5 -5 -5 -6 -6 -6 -5 -4 -3 -3 -4 -6 -7 -7 -7 -6 -7
4 4 5 4 3 2 1 -0 -1 -2 -2 -2 -4 -5 -5 -4 -5 -5 -6 -6 -5 -5 -4 -3 -3 -5 -5 -6 -5 -6 -5 -7
3 3 2 1 0 -0 -0 -1 -3 -3 -3 -4 -4 -4 -4 -4 -7 -10 -5 -5 -6 -7 -8 -5 -3 -5 -4 -5 -5 -5 -7 -8
1 0 0 0 -0 -2 -4 -4 -4 -6 -7 -5 -5 -8 -12 -15 -15 -12 -11 -12 -12 -10 -8 -4 -3 -4 -4 -3 -4 -8 -7 -10
1 0 -0 -2 -4 -6 -5 -4 -6 -6 -8 -9 -11 -13 -17 -14 -11 -10 -11 -13 -13 -11 -8 -4 -3 -3 -4 -4 -5 -8 -8 -10
-0 -2 -4 -5 -6 -6 -5 -7 -10 -12 -12 -12 -16 -15 -11 -10 -10 -10 -12 -12 -12 -12 -8 -5 -5 -5 -4 -5 -7 -7 -9 -9
-3 -5 -5 -6 -6 -7 -10 -12 -12 -12 -14 -17 -15 -11 -11 -10 -10 -10 -11 -10 -11 -9 -6 -5 -7 -6 -5 -6 -7 -9 -9 -9
-5 -6 -6 -7 -10 -11 -12 -11 -12 -15 -17 -16 -13 -12 -12 -11 -9 -8 -8 -8 -10 -5 -6 -7 -7 -6 -7 -9 -9 -8 -9 -11
-6 -6 -6 -11 -12 -12 -11 -12 -15 -18 -18 -19 -18 -15 -11 -9 -7 -6 -7 -8 -8 -7 -8 -6 -8 -8 -8 -8 -8 -10 -12 -13
-5 -5 -10 -12 -11 -11 -12 -15 -19 -20 -19 -20 -19 -16 -12 -7 -6 -6 -7 -7 -7 -6 -7 -8 -8 -8 -8 -9 -10 -12 -13 -14

GFSFLT1_850_dewp_048.txt.gz
Dewpoint
7 6 5 6 6 8 8 8 9 10 9 7 4 7 8 4 -0 -3 -3 -2 -2 -2 -2 -2 0 2 2 0 -0 -1 -1 -3
8 7 7 6 7 7 7 8 9 7 6 6 7 6 3 -3 -2 -1 -1 -0 -0 -1 0 0 0 2 -2 -2 -3 -4 -4 -3
9 11 11 11 11 10 10 9 8 8 7 7 5 4 1 1 -0 0 0 0 -0 -0 0 1 -2 -1 -1 -2 -3 -4 -5 -5
10 10 10 10 10 10 9 8 7 5 4 2 2 -1 -2 0 1 2 1 0 0 1 -2 -5 -5 -5 -4 -3 -3 -3 -4 -5
7 5 5 6 7 7 6 6 5 -2 -1 4 3 2 2 3 3 2 2 0 -2 -4 -8 -11 -6 -4 -3 -4 -5 -3 -3 -5
3 3 3 3 1 4 4 4 4 1 0 3 3 3 2 3 3 0 0 -0 -6 -11 -10 -6 -2 -2 -3 -2 -2 -2 -3 -4
3 3 3 4 2 1 1 3 1 1 2 2 2 2 1 -0 -1 -2 -3 -3 -3 -3 -3 -2 -1 -2 -1 -2 -2 -2 -3 -3
3 3 4 4 4 4 4 4 4 2 2 1 0 -1 -1 -2 -2 -3 -4 -5 -5 -4 -3 -2 -3 -3 -1 -1 -2 -3 -3 -3
3 4 4 4 5 5 4 4 3 2 1 -0 -1 -2 -2 -2 -3 -3 -4 -4 -3 -3 -2 -2 -1 -2 -2 -2 -2 -3 -3 -3
4 5 5 5 5 5 5 3 2 1 -1 -1 -2 -3 -3 -3 -3 -2 -2 -1 -2 -2 -1 -1 -2 -2 -2 -2 -2 -3 -3 -3
4 5 6 5 5 5 3 2 0 -1 -2 -3 -3 -3 -3 -3 -3 -2 -3 -4 -4 -4 -4 -4 -4 -3 -3 -3 -3 -4 -4 -4
4 4 4 4 3 1 1 -1 -2 -3 -3 -3 -3 -4 -6 -6 -6 -6 -7 -7 -8 -8 -8 -6 -5 -5 -3 -3 -3 -4 -4 -4
3 2 1 0 -0 -1 -1 -3 -3 -1 -3 -5 -7 -7 -7 -8 -8 -8 -8 -8 -7 -7 -6 -4 -4 -4 -3 -4 -5 -4 -4 -5
2 1 1 1 -0 -3 -5 -3 -2 -7 -9 -9 -8 -9 -10 -9 -8 -7 -7 -6 -6 -5 -4 -4 -4 -3 -3 -4 -4 -5 -6 -6
1 0 -0 -1 -3 -4 -4 -4 -9 -11 -9 -10 -12 -11 -8 -8 -7 -7 -6 -5 -5 -4 -4 -4 -6 -6 -7 -7 -5 -5 -5 -6
1 -0 -1 -2 -4 -5 -5 -10 -12 -12 -13 -14 -11 -8 -7 -7 -6 -5 -5 -4 -4 -4 -4 -5 -7 -6 -5 -5 -5 -6 -7 -7
-1 -2 -3 -4 -6 -7 -11 -12 -12 -15 -18 -11 -10 -9 -7 -6 -6 -5 -5 -5 -5 -4 -4 -4 -5 -5 -8 -9 -9 -7 -8 -9
-1 -2 -4 -6 -8 -10 -9 -10 -14 -20 -14 -12 -11 -11 -8 -7 -6 -5 -5 -5 -4 -4 -4 -4 -5 -5 -8 -8 -8 -9 -9 -10
-2 -3 -5 -7 -9 -9 -11 -13 -16 -20 -18 -18 -15 -11 -11 -7 -5 -5 -5 -5 -4 -5 -5 -5 -5 -6 -8 -8 -9 -9 -9 -9